Flag for Nigeria Weather past 2 weeks in Lagos, Nigeria

Now
79 °F

Fog.


Feels Like: 83 °F
Forecast: 73 / 83 °F
Wind: 2 mph from North

Location: Lagos / Ikeja

Current Time: Jul 4, 2015 at 8:59:06 AM

Latest Report: Jul 4, 2015 at 8:00 AM


Visibility: 3 mi

Pressure: 29.92 "Hg

Humidity: 94%

Dew point: 77 °F

Location of LagosLocation

Historic Weather in Lagos — Graph

°F

Lagos temperature yesterday

Maximum temperature yesterday: 82 °F (at 2:00 PM)
Minimum temperature yesterday: 75 °F (at 12:00 AM)
Average temperature yesterday: 78 °F

Past Weeks' High & Low Weather Summary

 TemperatureHumidityPressure
High88 °F (Jun 19, 3:00 PM)100% (Jun 20, 12:00 PM)30.04 "Hg (Jun 20, 12:00 PM)
Low70 °F (Jun 21, 4:00 AM)66% (Jun 19, 4:00 PM)29.83 "Hg (Jun 19, 4:00 PM)
Average79 °F89%29.94 "Hg
* Reported Jun 19 10:00 AM — Jul 4 6:00 AM, Lagos, Weather by CustomWeather, © 2015

Note: Actual official high and low records may vary slightly from our data, if they occured in-between our weather recording intervals... More about our weather records

Advertising

Lagos weather history for previous 24 hours

 ConditionsComfort  
Time TempWeatherWind HumidityBarometerVisibility
6:00 AM
Sat, Jul 4
75 °FPassing clouds.6 mph100%29.92 "Hg4 mi
5:00 AM75 °FPassing clouds.2 mph100%29.92 "Hg4 mi
4:00 AM75 °FPassing clouds.No wind100%29.89 "Hg4 mi
3:00 AM75 °FThunderstorms. Passing clouds.No wind100%29.92 "Hg4 mi
2:00 AM75 °FThunderstorms. Passing clouds.No wind100%29.95 "Hg5 mi
1:00 AM75 °FThunderstorms. Passing clouds.No wind100%29.95 "Hg4 mi
12:00 AM77 °FThunderstorms. Passing clouds.2 mph94%29.95 "Hg3 mi
11:00 PM
Fri, Jul 3
77 °FThunderstorms. Passing clouds.2 mph94%29.95 "Hg3 mi
10:00 PM77 °FPassing clouds.2 mph94%29.95 "Hg5 mi
9:00 PM79 °FPassing clouds.3 mph89%29.92 "HgN/A
8:00 PM79 °FPassing clouds.5 mph89%29.95 "HgN/A
7:00 PM79 °FScattered clouds.5 mph84%29.89 "HgN/A
6:00 PM81 °FPartly sunny.5 mph84%29.89 "HgN/A
5:00 PM82 °FPartly sunny.6 mph79%29.86 "HgN/A
4:00 PM82 °FPartly sunny.7 mph79%29.86 "HgN/A
3:00 PM82 °FPartly sunny.6 mph84%29.89 "HgN/A
2:00 PM82 °FPartly sunny.8 mph84%29.92 "HgN/A
1:00 PM81 °FScattered clouds.5 mph89%29.95 "HgN/A
11:00 AM79 °FScattered clouds.2 mph94%29.95 "Hg1 mi
10:00 AM77 °FLight rain. Scattered clouds.2 mph94%29.95 "Hg1 mi
9:00 AM75 °FFog.2 mph100%29.92 "Hg2 mi
8:00 AM75 °FLight rain. Scattered clouds.No wind100%29.92 "Hg2 mi
Weather by CustomWeather, © 2015

See weather overviewHow to use our weather pages